EN

Hourly Weather Al Hilla

Today, 25 January, Monday

Time Temperature Precipitation Wind Pressure Humidity
00:00 +9°C° 0 mm 2 mps 764 mmHg 36%
01:00 +9°C° 0 mm 2 mps 764 mmHg 35%
02:00 +9°C° 0 mm 2 mps 763 mmHg 35%
03:00 +9°C° 0 mm 2 mps 763 mmHg 35%
04:00 +8°C° 0 mm 2 mps 763 mmHg 35%
05:00 +8°C° 0 mm 2 mps 763 mmHg 35%
06:00 +9°C° 0 mm 1 mps 764 mmHg 34%
07:00 +10°C° 0 mm 1 mps 764 mmHg 31%
08:00 +12°C° 0 mm 1 mps 764 mmHg 28%
09:00 +12°C° 0 mm 0 mps 764 mmHg 24%
10:00 +15°C° 0 mm 1 mps 764 mmHg 21%
11:00 +16°C° 0 mm 1 mps 764 mmHg 19%
12:00 +19°C° 0 mm 1 mps 764 mmHg 16%
13:00 +19°C° 0 mm 1 mps 763 mmHg 15%
14:00 +18°C° 0 mm 0 mps 762 mmHg 15%
15:00 +19°C° 0 mm 0 mps 762 mmHg 14%
16:00 +17°C° 0 mm 0 mps 762 mmHg 16%
17:00 +18°C° 0 mm 1 mps 762 mmHg 19%
18:00 +15°C° 0 mm 1 mps 762 mmHg 21%
19:00 +15°C° 0 mm 1 mps 762 mmHg 23%
20:00 +14°C° 0 mm 2 mps 762 mmHg 24%
21:00 +14°C° 0 mm 2 mps 762 mmHg 25%
22:00 +14°C° 0 mm 2 mps 762 mmHg 25%
23:00 +12°C° 0 mm 3 mps 763 mmHg 26%

Tomorrow, 26 January, Tuesday

Time Temperature Precipitation Wind Pressure Humidity
00:00 +12°C° 0 mm 3 mps 763 mmHg 26%
01:00 +12°C° 0 mm 3 mps 763 mmHg 26%
02:00 +11°C° 0 mm 3 mps 763 mmHg 26%
03:00 +12°C° 0 mm 2 mps 763 mmHg 25%
04:00 +11°C° 0 mm 3 mps 763 mmHg 26%
05:00 +10°C° 0 mm 3 mps 763 mmHg 26%
06:00 +10°C° 0 mm 3 mps 763 mmHg 27%
07:00 +11°C° 0 mm 3 mps 763 mmHg 25%
08:00 +13°C° 0 mm 2 mps 763 mmHg 24%
09:00 +15°C° 0 mm 2 mps 764 mmHg 22%
10:00 +16°C° 0 mm 2 mps 764 mmHg 20%
11:00 +18°C° 0 mm 2 mps 763 mmHg 18%
12:00 +20°C° 0 mm 2 mps 763 mmHg 15%
13:00 +20°C° 0 mm 2 mps 763 mmHg 15%
14:00 +21°C° 0 mm 3 mps 762 mmHg 15%
15:00 +21°C° 0 mm 3 mps 762 mmHg 14%
16:00 +20°C° 0 mm 3 mps 762 mmHg 17%
17:00 +18°C° 0 mm 3 mps 762 mmHg 20%
18:00 +17°C° 0 mm 4 mps 762 mmHg 23%
19:00 +15°C° 0 mm 4 mps 762 mmHg 24%
20:00 +15°C° 0 mm 4 mps 762 mmHg 25%
21:00 +14°C° 0 mm 3 mps 762 mmHg 27%
22:00 +14°C° 0 mm 3 mps 762 mmHg 27%
23:00 +13°C° 0 mm 3 mps 762 mmHg 28%

Day after tomorrow, 27 January, Wednesday

Time Temperature Precipitation Wind Pressure Humidity
00:00 +13°C° 0 mm 3 mps 762 mmHg 28%
01:00 +13°C° 0 mm 2 mps 762 mmHg 29%
02:00 +13°C° 0 mm 2 mps 762 mmHg 30%
03:00 +12°C° 0 mm 2 mps 762 mmHg 32%
04:00 +12°C° 0 mm 2 mps 762 mmHg 32%
05:00 +12°C° 0 mm 2 mps 762 mmHg 32%
06:00 +10°C° 0 mm 2 mps 762 mmHg 32%
07:00 +13°C° 0 mm 1 mps 762 mmHg 30%
08:00 +14°C° 0 mm 1 mps 762 mmHg 27%
09:00 +15°C° 0 mm 1 mps 762 mmHg 25%
10:00 +16°C° 0 mm 0 mps 762 mmHg 22%
11:00 +17°C° 0 mm 0 mps 762 mmHg 20%
12:00 +19°C° 0 mm 0 mps 762 mmHg 18%
13:00 +21°C° 0 mm 1 mps 761 mmHg 17%
14:00 +22°C° 0 mm 1 mps 760 mmHg 17%
15:00 +23°C° 0 mm 2 mps 760 mmHg 16%
16:00 +21°C° 0 mm 2 mps 760 mmHg 17%
17:00 +20°C° 0 mm 3 mps 759 mmHg 19%
18:00 +19°C° 0 mm 3 mps 759 mmHg 20%
19:00 +19°C° 0 mm 4 mps 759 mmHg 21%
20:00 +18°C° 0 mm 4 mps 759 mmHg 22%
21:00 +18°C° 0 mm 4 mps 759 mmHg 23%
22:00 +17°C° 0 mm 4 mps 759 mmHg 24%
23:00 +17°C° 0 mm 4 mps 758 mmHg 24%

28 January, Thursday

Time Temperature Precipitation Wind Pressure Humidity
00:00 +17°C° 0 mm 4 mps 758 mmHg 25%
01:00 +15°C° 0 mm 5 mps 758 mmHg 25%
02:00 +15°C° 0 mm 5 mps 757 mmHg 24%
03:00 +15°C° 0 mm 5 mps 757 mmHg 24%
04:00 +16°C° 0 mm 6 mps 757 mmHg 24%
05:00 +16°C° 0 mm 7 mps 756 mmHg 24%
06:00 +16°C° 0 mm 8 mps 756 mmHg 23%
07:00 +17°C° 0 mm 9 mps 756 mmHg 23%
08:00 +18°C° 0 mm 10 mps 756 mmHg 23%
09:00 +18°C° 0 mm 11 mps 756 mmHg 22%
10:00 +21°C° 0 mm 11 mps 755 mmHg 22%
11:00 +23°C° 0 mm 10 mps 755 mmHg 21%
12:00 +24°C° 0 mm 10 mps 754 mmHg 21%
13:00 +26°C° 0 mm 9 mps 754 mmHg 21%
14:00 +27°C° 0 mm 8 mps 754 mmHg 20%
15:00 +28°C° 0 mm 7 mps 753 mmHg 20%
16:00 +26°C° 0 mm 6 mps 754 mmHg 23%
17:00 +23°C° 0 mm 5 mps 754 mmHg 26%
18:00 +22°C° 0 mm 5 mps 754 mmHg 30%
19:00 +21°C° 0 mm 4 mps 755 mmHg 30%
20:00 +20°C° 0 mm 4 mps 756 mmHg 31%
21:00 +19°C° 0 mm 3 mps 756 mmHg 31%
22:00 +18°C° 0 mm 3 mps 756 mmHg 32%
23:00 +17°C° 0 mm 2 mps 757 mmHg 32%

29 January, Friday

Time Temperature Precipitation Wind Pressure Humidity
00:00 +16°C° 0 mm 1 mps 757 mmHg 32%
01:00 +16°C° 0 mm 2 mps 757 mmHg 33%
02:00 +16°C° 0 mm 3 mps 756 mmHg 34%
03:00 +14°C° 0 mm 3 mps 756 mmHg 35%
04:00 +14°C° 0 mm 3 mps 756 mmHg 38%
05:00 +13°C° 0 mm 3 mps 756 mmHg 41%
06:00 +13°C° 0 mm 3 mps 756 mmHg 43%
07:00 +14°C° 0 mm 3 mps 756 mmHg 45%
08:00 +16°C° 0 mm 2 mps 756 mmHg 46%
09:00 +17°C° 0 mm 2 mps 756 mmHg 47%
10:00 +18°C° 0 mm 3 mps 756 mmHg 42%
11:00 +20°C° 0 mm 5 mps 756 mmHg 36%
12:00 +21°C° 0 mm 6 mps 755 mmHg 31%
13:00 +21°C° 0 mm 7 mps 755 mmHg 31%
14:00 +21°C° 0 mm 7 mps 755 mmHg 31%
15:00 +21°C° 0 mm 8 mps 755 mmHg 32%
16:00 +20°C° 0 mm 7 mps 755 mmHg 32%
17:00 +19°C° 0 mm 6 mps 756 mmHg 32%
18:00 +18°C° 0 mm 4 mps 756 mmHg 33%
19:00 +16°C° 0 mm 5 mps 757 mmHg 31%
20:00 +15°C° 0 mm 5 mps 758 mmHg 29%
21:00 +15°C° 0 mm 5 mps 759 mmHg 28%
22:00 +14°C° 0 mm 5 mps 759 mmHg 32%
23:00 +14°C° 0 mm 5 mps 759 mmHg 35%

30 January, Saturday

Time Temperature Precipitation Wind Pressure Humidity
00:00 +13°C° 0 mm 5 mps 759 mmHg 39%
01:00 +13°C° 0 mm 5 mps 760 mmHg 42%
02:00 +12°C° 0 mm 4 mps 760 mmHg 44%
03:00 +12°C° 0 mm 4 mps 760 mmHg 46%
04:00 +11°C° 0 mm 4 mps 760 mmHg 48%
05:00 +11°C° 0 mm 4 mps 760 mmHg 50%
06:00 +10°C° 0 mm 4 mps 760 mmHg 52%
07:00 +11°C° 0 mm 4 mps 761 mmHg 49%
08:00 +12°C° 0 mm 5 mps 761 mmHg 47%
09:00 +13°C° 0 mm 6 mps 762 mmHg 44%
10:00 +14°C° 0 mm 6 mps 762 mmHg 41%
11:00 +15°C° 0 mm 6 mps 762 mmHg 38%
12:00 +16°C° 0 mm 6 mps 761 mmHg 35%
13:00 +16°C° 0 mm 6 mps 761 mmHg 33%
14:00 +16°C° 0 mm 6 mps 761 mmHg 30%
15:00 +16°C° 0 mm 6 mps 761 mmHg 28%
16:00 +15°C° 0 mm 5 mps 761 mmHg 30%
17:00 +14°C° 0 mm 4 mps 761 mmHg 31%
18:00 +13°C° 0 mm 3 mps 762 mmHg 32%
19:00 +13°C° 0 mm 3 mps 762 mmHg 33%
20:00 +12°C° 0 mm 3 mps 763 mmHg 35%
21:00 +12°C° 0 mm 2 mps 763 mmHg 36%
22:00 +12°C° 0 mm 2 mps 763 mmHg 38%
23:00 +11°C° 0 mm 1 mps 764 mmHg 40%
Show more